Voltar ao catálogo

COSMOS 1561

AtivoNavegaçãoLEO
NORAD 15000·PAYLOAD·🇷🇺 Russia

Lançado May 28, 1984 de Plesetsk Cosmodrome

Loading…

Próximas Passagens (próximas 24 horas)

TLE

AtualizadoSource: Space-Track

Época: Sep 14, 2026, 08:33 UTC

1 15000U 84052C   26257.35690025 -.00000018  00000-0 -17038-4 0  9991
2 15000  74.0091 272.7580 0014350 121.1754 250.9484 12.47992545926865

Acompanhe COSMOS 1561 em tempo real com AllMySat

Download on the App Store